USA 40 R/B DEB, 23380

Orbit data source: Space-Track

USA 40 R/B DEB, 23380 is space debris originally from a launch on Tue, 08 Aug 1989 UTC launched from the Air Force Eastern Test Range (AFETR). Debris objects in space refer to the collection of defunct objects orbiting the Earth. Examples of debris include non-operational satellites, rocket bodies, and fragments generated from explosions, collisions, or faulty payload assembly.

Loading next visibility...
Identifier
23380, 1989-061BC
Orbit
Active
Country
Flag of USUS
Related business
Manufacturer
Unknown
Mission
Spacecraft
Bus & Motor
Unknown
Mass
Unknown
Launch date (UTC)
1989-08-08 (37 years ago)
Launch vehicle
Unknown
Launch site
Air Force Eastern Test Range (AFETR)
Object type
Payload
Rocket body
Debris
Shape & HBR
Unknown shape, 0.1 m
Radar Cross Section
Small (<0.1 m²)

Expand to show TLE details & history
Last TLE update: 2 months ago

TLE from 2 months ago
0 USA 40 R/B DEB
1 23380U 89061BC  26036.84568281  .00007108  00000-0  50378-2 0  9990
2 23380  57.0350 210.4011 2938295 219.6948 114.7526  9.01211274 73805
Epoch: 2026-02-05T20:17Z
TLE epoch observation values (Epoch: 2026-02-05T20:17:46.994Z)
Latitude
Longitude
129.96323°
Altitude
5,141.654 km
Speed
5.325 km/s
True Right ascension
14h 01m 36s
True Declination
0° 00' 00"
Sunlit
Object was in daylight at epoch
Visualization orbit readout
Latitude
Unknown
Longitude
Unknown
Altitude
Unknown
Speed
Unknown
Apparent Right ascension
Unknown
Apparent Declination
Unknown
Sunlit
N/A
Visualization observer readout
Local Sidereal Time
02:33:49
Azimuth
Unknown
Elevation
Unknown
Doppler factor
Unknown
Orbital elements
Apogee altitude
6,241.549 km
Perigee altitude
509.672 km
Semi-major axis
9,753.747 km
Eccentricity
0.29383
Inclination
57.035°
RAAN
210.4011°
Arg. of periapsis
219.6948°
True anomaly
140.38194°
Mean anomaly
114.7526°
Eccentric anomaly
128.01601°
Mean motion
2.25313 °/min
Orbital period
159.78 mins
BSTAR
0.0050378
Loading maneuver chart data...
Computing Atmospheric mass density...
Loading historical data...
Loading historical data...
Loading historical data...
Loading historical data...
Loading historical data...
Loading historical data...
Loading historical data...

Documentation

Showing up to 5 results
|